Temp
19 19 19 18 18 18 18 17 17 17 17 17 17 16 16 16 16 15 15 16 16 16 16 16 16 16 15 15 15 15 14 14 15 15 15 16 15 15 15 14 14 14
20 19 19 19 18 18 18 18 18 18 17 17 17 17 16 16 16 15 16 16 16 16 16 16 16 16 16 15 15 15 15 15 15 15 15 15 15 14 14 14 14 14
20 19 19 19 19 18 18 18 18 18 18 17 17 17 17 16 16 16 16 16 16 16 16 16 16 16 16 15 15 15 15 15 14 14 14 14 14 14 14 14 14 14
20 19 19 19 19 19 19 18 18 18 18 17 17 17 17 17 16 16 16 16 16 16 16 16 15 15 15 15 15 15 15 15 14 14 14 14 14 14 14 14 14 14
20 20 19 19 19 19 19 19 19 19 18 18 17 17 17 17 16 16 16 16 16 16 16 16 15 15 15 15 15 15 15 15 15 15 15 14 14 14 14 14 14 14
20 20 20 20 19 19 19 19 19 19 19 18 18 17 17 17 17 16 16 16 16 16 16 16 15 15 15 15 15 15 15 15 15 15 15 15 15 15 15 14 14 14
20 20 20 20 19 19 19 19 19 19 19 18 18 18 17 17 17 17 17 16 16 16 15 15 15 15 15 15 15 15 15 15 15 15 14 15 15 15 14 14 14 14
20 20 20 20 19 19 19 19 19 19 18 18 18 17 17 17 17 17 17 16 16 16 15 15 15 15 15 15 15 15 15 15 15 15 14 14 15 15 14 14 14 14
20 20 19 19 19 19 19 18 18 18 18 18 17 17 17 17 17 17 17 17 16 16 16 16 15 15 15 15 15 15 15 15 15 15 15 15 15 15 14 14 14 14
19 19 19 18 18 18 18 18 18 18 18 18 18 17 16 16 17 17 17 16 16 16 16 16 16 16 15 15 15 15 15 15 15 15 15 15 15 14 14 14 14 14
18 18 18 18 18 18 18 18 18 18 18 18 18 17 17 16 16 16 16 16 16 16 16 16 16 16 15 15 15 15 15 15 15 15 15 15 15 14 14 14 14 14
17 17 17 18 18 18 17 17 17 17 17 18 18 18 17 16 16 16 16 16 16 16 16 16 16 16 16 16 15 15 15 15 15 15 15 15 15 14 14 14 14 14
14 14 15 16 16 17 17 17 17 17 17 17 17 17 17 17 16 16 17 17 16 16 16 16 16 16 16 16 16 15 15 15 15 15 15 15 15 14 14 14 14 14
13 13 14 15 16 16 16 17 17 17 17 17 17 17 17 17 17 17 17 17 17 17 16 16 16 16 16 16 16 16 15 15 15 15 15 15 14 14 14 14 14 14
15 15 15 16 16 16 16 16 16 16 16 16 16 16 16 16 17 17 17 17 17 17 16 16 16 16 16 16 16 16 16 15 15 15 15 15 14 14 14 14 14 13
16 16 16 16 16 16 16 16 16 16 16 16 16 16 16 16 16 16 16 16 16 16 16 15 15 16 16 16 16 16 16 15 15 15 15 15 14 14 14 13 13 13
16 16 16 16 16 16 16 16 16 16 16 16 16 16 16 15 15 16 16 16 16 15 15 15 15 15 16 16 16 16 16 15 15 15 15 14 14 14 13 13 13 13
16 16 16 16 15 15 15 15 15 15 15 15 16 16 16 16 15 15 16 16 15 15 15 15 15 15 16 16 16 15 15 15 15 15 15 14 14 14 13 13 13 12
16 16 16 16 16 16 15 15 15 15 15 15 16 16 16 16 15 15 15 15 15 15 15 15 15 15 15 15 15 15 15 15 15 15 14 14 14 13 13 13 12 12
16 16 16 16 16 16 16 16 16 16 16 16 16 16 16 16 16 16 15 15 15 15 15 15 14 14 15 15 15 14 14 14 14 14 14 13 13 13 12 12 12 12
16 16 16 15 15 15 15 15 15 15 16 16 16 16 16 16 16 15 15 15 15 15 14 14 14 14 14 14 14 14 13 13 13 13 13 12 12 12 12 12 12 11
15 15 15 15 15 15 15 15 15 15 15 15 15 15 15 15 15 15 15 15 15 15 15 14 14 13 13 13 13 13 13 12 12 12 12 11 11 11 11 11 11 11
16 15 15 15 15 15 15 15 15 15 15 15 15 15 15 15 15 15 15 15 14 14 14 14 13 13 13 13 12 12 12 12 12 11 11 11 10 10 11 11 11 11
16 16 15 15 15 15 15 15 15 15 15 15 15 15 15 15 15 15 15 15 14 14 13 13 13 12 12 12 12 12 12 11 11 11 11 10 10 10 10 10 10 10
16 16 15 15 15 15 15 15 15 14 14 14 15 15 15 15 15 15 14 14 14 14 13 13 12 12 11 11 11 11 11 11 11 10 10 10 10 10 10 10 10 10
15 15 15 15 15 15 15 14 14 14 14 14 14 14 14 14 14 14 14 13 13 13 12 12 12 11 11 11 11 11 11 10 10 10 10 9 9 9 9 9 9 9
Height
803 803 803 804 806 808 809 810 811 813 814 815 817 818 819 821 822 823 824 825 826 826 827 828 829 829 830 830 831 831 831 831 832 832 832 832 832 832 832 833 833 833
804 802 803 803 805 807 808 809 810 811 813 815 816 818 820 821 823 824 825 825 826 827 828 828 829 830 831 831 832 832 833 833 833 833 833 833 833 833 833 834 834 834
804 802 803 803 804 806 807 808 809 810 812 814 815 817 819 821 822 823 825 826 827 827 828 829 830 831 831 832 833 833 834 834 834 834 835 835 835 835 835 835 835 835
804 802 802 803 804 805 806 807 808 809 810 812 814 816 818 820 822 823 825 826 827 828 829 830 831 831 832 832 833 833 834 834 835 835 835 836 836 836 836 836 836 836
802 802 802 803 804 805 806 806 808 808 809 811 813 815 817 819 821 823 825 826 827 828 829 830 831 832 833 833 833 833 834 834 835 835 836 836 836 836 836 836 836 836
801 801 802 803 803 804 805 806 807 808 809 810 812 815 817 818 820 822 824 825 827 828 829 830 831 832 833 833 834 834 834 834 835 835 835 836 836 837 837 837 837 837
799 800 801 802 803 804 804 805 807 808 809 810 812 814 816 818 820 822 823 825 826 827 829 830 831 832 832 833 833 834 834 834 835 835 835 835 836 836 836 837 837 837
796 798 800 800 801 803 804 805 806 807 808 809 811 813 815 817 819 821 823 825 826 827 828 829 830 831 832 832 833 833 834 834 834 835 835 835 835 836 836 836 837 837
793 795 797 799 800 802 803 804 805 805 806 807 809 811 813 815 818 820 822 823 825 826 827 828 829 830 831 832 832 833 833 833 834 834 834 834 834 835 835 835 836 837
790 792 794 796 798 800 801 803 804 805 806 807 808 810 812 814 817 819 821 822 823 824 825 826 827 828 829 830 831 832 832 832 833 833 833 833 833 833 834 834 835 835
788 790 792 794 796 797 799 801 803 805 806 807 807 809 810 812 815 817 819 821 822 823 823 823 824 825 827 827 829 829 830 830 831 831 832 832 832 833 833 833 833 834
788 788 789 791 792 794 796 798 801 804 806 807 807 808 809 811 812 814 815 817 820 822 822 822 822 823 824 825 826 827 828 828 829 829 830 831 831 832 832 832 832 833
790 790 791 792 793 793 794 796 798 801 804 806 808 808 809 811 812 813 813 814 816 818 820 821 821 821 821 822 823 824 825 826 827 827 828 829 830 831 831 832 832 833
793 794 795 796 795 795 795 796 797 799 801 804 806 808 809 810 811 811 812 812 812 813 815 817 819 819 819 819 820 821 823 823 824 826 826 828 829 829 830 831 831 832
792 793 794 794 794 794 796 797 798 800 801 803 804 806 807 808 809 809 809 809 810 810 811 813 815 817 817 818 818 818 820 821 822 823 824 826 827 828 828 829 830 830
791 791 792 793 794 795 797 797 799 800 801 802 803 804 805 806 807 807 807 807 807 807 808 810 812 814 815 816 816 816 817 818 819 821 822 823 824 825 826 827 827 828
792 793 794 795 796 796 797 797 798 799 800 801 802 803 804 805 805 806 805 805 806 806 807 809 810 811 812 813 814 815 815 816 817 818 819 820 821 822 823 824 825 826
794 795 795 796 797 797 798 798 799 799 799 800 800 801 802 803 804 804 804 804 805 805 806 807 808 809 809 810 811 812 813 814 814 815 816 817 818 819 820 821 823 824
795 795 796 797 797 797 798 798 799 799 799 800 800 800 801 801 802 803 803 803 803 804 805 805 806 806 807 808 808 809 810 811 811 812 813 814 815 816 818 819 821 823
795 795 796 796 797 798 798 798 799 799 800 800 800 800 800 800 801 801 802 802 803 803 804 804 805 805 805 805 806 807 808 808 809 809 810 812 814 815 817 819 820 822
795 795 796 796 797 798 798 798 799 799 799 800 800 800 800 800 801 801 801 802 802 803 803 803 803 803 803 804 804 805 806 807 808 809 810 812 813 815 818 819 820 821
794 795 796 796 797 797 797 797 798 798 798 799 799 799 799 800 800 800 800 800 800 801 802 802 802 802 802 803 803 804 805 807 808 809 810 811 813 815 818 819 819 820
793 794 795 795 796 796 796 796 796 797 797 797 798 798 798 799 799 799 799 799 799 800 800 800 801 801 802 803 803 804 805 806 808 809 811 812 814 816 817 817 818 819
792 792 793 794 794 795 795 795 795 796 796 796 797 797 797 797 798 798 797 797 798 799 799 799 801 801 802 803 803 804 805 806 808 809 811 812 814 815 816 817 817 818
791 791 792 792 793 793 794 794 795 795 795 795 796 796 796 796 796 796 796 796 797 797 798 799 800 801 801 802 803 804 805 806 807 809 810 812 813 814 815 816 816 816
790 790 791 791 792 792 792 793 794 794 795 795 795 795 795 794 794 794 794 794 795 796 797 798 799 800 801 802 803 804 805 806 807 808 809 811 812 813 814 814 815 815
Wind_Speed
28 28 29 26 26 25 23 25 23 20 18 16 15 14 12 12 13 12 10 9 9 12 13 13 12 10 9 10 10 10 10 10 11 11 11 11 11 11 11 11 9 7
29 28 29 26 25 25 23 24 23 19 18 17 15 14 13 12 12 11 9 8 8 10 11 12 12 11 10 8 8 8 8 9 10 9 8 9 10 10 10 10 9 6
29 28 28 26 25 25 24 23 23 20 19 19 17 16 14 14 13 11 9 7 8 9 9 11 12 11 10 7 6 7 8 8 8 6 5 6 7 8 8 8 8 5
27 27 26 26 24 24 24 25 23 21 21 21 19 18 16 15 14 12 10 8 9 9 9 11 11 9 9 8 6 6 7 7 6 5 5 4 4 4 5 5 6 6
26 24 23 24 24 24 24 25 24 21 21 22 21 20 18 16 16 14 11 10 9 9 10 11 11 8 8 9 7 6 7 7 6 6 6 5 3 2 2 3 4 6
24 22 22 22 23 25 23 24 25 22 21 21 22 21 19 17 16 14 13 11 10 10 10 11 12 10 10 10 9 8 8 8 7 7 7 5 4 3 2 2 3 3
23 21 23 22 22 25 24 23 24 23 21 20 21 21 20 18 16 14 13 12 12 12 11 11 13 13 12 13 12 11 11 11 9 8 8 7 5 4 4 3 1 0
22 20 19 18 19 24 24 22 22 22 22 21 22 23 21 18 16 15 13 12 12 13 12 12 12 14 15 15 14 13 13 13 12 11 11 10 8 7 7 6 4 4
18 20 17 15 17 20 21 19 19 20 22 23 23 22 21 19 17 15 14 14 14 15 15 14 13 14 15 16 16 16 15 15 14 13 13 13 12 11 10 8 7 6
17 16 15 13 14 16 17 16 16 17 19 22 22 20 17 16 16 16 16 16 17 18 18 17 16 17 17 17 17 18 17 17 17 16 15 15 15 15 13 11 10 9
20 18 16 14 13 12 12 13 14 14 16 19 21 19 16 13 14 17 17 17 17 18 20 21 20 19 20 20 19 20 20 19 19 19 17 16 16 16 14 13 13 13
17 18 17 17 16 15 13 11 10 10 12 15 18 20 17 13 13 16 17 15 14 13 16 21 23 22 22 22 22 22 22 21 21 22 19 17 17 16 14 13 13 12
6 7 8 10 12 14 14 14 12 9 9 13 16 19 19 16 15 15 15 14 14 13 14 18 22 24 24 25 25 24 24 23 24 23 20 19 18 17 15 14 13 12
4 4 4 5 6 8 9 11 13 11 11 13 16 18 20 20 19 19 19 19 19 21 21 20 20 23 25 27 27 27 26 25 25 24 21 20 19 18 16 15 14 13
10 10 10 8 8 8 8 9 10 11 12 14 15 17 18 19 19 19 20 21 21 22 25 24 23 22 23 25 27 27 28 27 26 25 23 21 20 18 16 15 14 13
12 12 11 10 10 10 10 10 10 10 10 11 12 13 14 15 15 16 18 19 19 20 22 24 25 25 24 24 24 25 26 26 26 26 24 23 22 20 18 16 14 14
11 10 10 10 10 9 9 10 10 9 8 8 9 10 11 12 13 14 16 18 19 20 22 23 24 25 25 25 25 24 23 24 25 26 26 25 24 22 21 19 17 15
11 10 9 10 10 8 8 9 9 8 8 8 8 9 9 10 11 13 13 13 14 16 18 19 20 21 22 23 24 24 24 24 24 26 26 26 25 24 23 21 19 16
11 10 9 9 8 8 8 7 6 7 7 8 9 9 9 11 12 11 10 9 10 12 13 15 17 19 20 20 22 23 24 24 24 26 28 27 26 25 23 20 17 15
9 9 10 10 8 7 6 6 5 4 4 6 7 8 9 11 13 12 10 9 10 12 12 12 14 16 17 18 19 19 19 22 24 26 27 24 22 20 18 16 15 13
9 9 9 8 7 6 6 5 4 4 3 3 5 6 7 8 9 11 12 13 13 12 11 12 13 12 12 13 14 15 16 19 21 22 22 20 18 16 13 13 13 11
12 11 9 7 6 7 6 5 4 4 3 3 4 6 8 8 8 8 10 14 16 13 12 12 12 10 8 8 10 13 16 18 18 18 17 15 14 12 10 11 12 11
14 11 9 8 7 6 5 4 4 4 4 4 4 5 7 9 9 9 9 11 14 15 14 13 10 7 6 7 11 14 16 16 15 15 13 11 10 11 11 10 10 10
12 9 7 8 7 6 4 3 4 4 4 5 5 6 7 7 8 9 10 10 11 13 13 12 9 9 10 11 14 15 15 14 13 12 11 9 8 8 8 7 8 10
6 6 8 7 5 5 5 5 5 5 5 6 6 7 8 9 9 10 11 11 11 12 12 10 9 11 13 14 15 14 13 14 13 12 11 8 6 5 5 6 10 12
1 2 5 6 7 8 8 8 8 7 7 7 8 8 9 10 11 12 12 12 13 13 11 10 11 13 15 15 15 14 14 14 13 12 11 8 6 4 2 4 8 10
Wind_Direction
174 171 168 164 162 163 160 162 162 158 158 153 148 150 146 138 132 133 138 137 135 137 137 133 128 124 123 122 119 116 116 114 109 106 108 111 113 116 124 125 115 106
178 175 171 166 165 166 163 166 168 164 164 161 153 152 149 142 141 148 154 152 148 145 143 144 141 137 135 137 137 130 125 118 108 99 96 100 103 105 114 117 107 93
181 179 173 169 169 171 170 169 170 170 168 166 161 160 157 152 155 165 168 162 160 155 149 149 149 150 151 151 151 139 129 119 110 106 100 93 89 92 103 109 105 98
182 179 176 173 173 174 175 173 171 171 172 171 170 168 164 162 165 173 175 173 172 168 162 155 153 162 169 163 161 153 141 137 136 144 144 117 94 91 97 105 110 107
187 182 179 179 179 178 179 178 172 169 171 173 173 173 169 168 172 178 180 179 179 178 176 169 164 176 185 173 179 187 167 164 170 166 163 150 145 158 104 99 118 117
192 189 187 188 186 182 182 181 174 168 169 172 174 176 174 173 177 182 185 186 189 190 188 183 177 184 194 186 191 205 191 188 196 178 175 182 176 189 195 113 110 117
193 192 193 195 193 188 184 180 176 172 170 170 173 177 178 179 183 187 191 191 195 199 198 195 191 191 199 196 197 208 203 203 211 194 192 212 209 200 208 199 182 252
189 186 185 183 183 185 179 169 167 169 167 164 167 175 179 183 188 192 198 199 202 208 208 208 206 203 206 205 203 210 211 209 213 203 199 215 221 214 217 222 226 231
179 178 173 162 161 170 170 160 156 160 165 165 164 169 177 186 192 194 199 204 207 210 212 216 218 215 215 214 210 213 216 214 215 212 206 212 220 217 217 226 229 223
157 159 158 148 145 154 162 164 161 159 164 169 167 162 162 174 189 198 204 208 210 212 214 218 221 220 221 222 219 218 220 218 217 219 215 213 218 217 215 225 230 226
150 150 153 151 150 154 161 168 174 173 171 173 175 170 158 157 174 187 195 201 207 214 218 220 222 224 224 225 225 222 222 222 220 221 220 217 220 219 218 224 229 228
146 149 154 161 164 168 171 168 169 179 182 185 189 185 181 184 185 182 184 191 202 220 232 230 227 227 228 228 227 223 222 223 223 224 224 221 221 222 221 225 226 222
127 133 143 162 167 168 172 170 166 177 198 207 208 203 204 219 224 211 203 203 209 226 247 248 236 232 232 231 230 226 223 223 224 224 223 221 221 223 222 222 219 212
185 182 161 155 157 160 170 180 188 199 207 209 213 215 219 228 235 235 234 236 237 238 244 248 241 236 237 234 231 228 224 223 224 222 221 219 219 220 218 218 220 221
157 157 148 138 134 137 146 162 178 189 195 200 206 214 222 230 234 235 237 242 244 240 238 239 238 238 241 237 233 229 225 223 223 221 219 216 214 213 213 215 221 228
143 142 141 144 142 141 146 152 158 167 181 195 204 212 222 231 234 233 235 240 241 239 241 243 241 241 244 241 237 232 225 221 221 220 217 214 209 206 207 211 216 221
148 147 147 152 151 151 159 161 162 169 178 188 201 214 221 225 231 235 238 243 246 247 250 251 249 250 251 250 247 240 229 223 221 218 215 211 207 206 209 212 213 216
159 158 157 157 156 159 166 167 171 182 192 201 210 217 219 222 230 236 239 244 248 251 256 258 259 260 260 259 258 251 239 229 223 217 212 208 207 209 212 212 212 217
160 163 161 159 157 158 165 170 182 193 203 219 227 227 225 225 229 235 242 246 248 253 261 264 262 261 260 260 260 256 245 233 224 217 211 208 207 208 209 208 208 213
164 163 156 157 161 164 168 176 194 206 206 219 228 227 226 224 220 220 223 232 245 255 263 267 264 260 260 258 257 254 242 227 217 211 206 202 200 199 199 200 203 210
174 166 159 164 170 169 172 180 194 211 218 226 232 231 234 236 229 225 228 234 244 254 261 266 266 266 267 263 256 245 227 214 207 200 193 189 186 186 191 199 205 212
182 176 173 177 177 176 182 182 185 201 211 222 242 239 238 248 253 253 250 241 234 235 245 254 261 267 268 257 239 222 208 198 190 182 178 181 181 181 193 205 210 219
180 173 173 178 182 186 191 189 189 208 222 229 249 252 243 246 253 263 269 249 229 224 230 235 237 238 234 215 202 198 193 186 181 177 178 187 192 191 197 204 213 231
177 180 188 190 190 191 201 213 215 226 239 242 253 262 257 252 250 253 258 253 237 227 224 222 215 206 201 195 191 189 186 181 180 177 172 174 186 195 205 220 238 249
178 192 192 187 191 213 235 243 238 236 243 250 257 263 261 257 253 249 244 237 231 227 221 214 206 198 197 197 194 193 194 190 184 177 166 159 165 181 207 244 253 253
251 219 214 222 240 250 246 235 234 239 246 251 255 263 268 259 247 240 230 216 213 215 212 206 203 196 193 197 199 200 202 200 192 185 177 168 161 149 157 238 247 245